Location: ??
(34.7252°N, 135.5457°E)
Time: 07:33:09
(UTC+00:00)

Cosmos 2242 Rocket - Pass Details

Date: 24 September 2020
Orbit: 619 x 650 km, 82.5° (Epoch: 28 October)

Event Time Altitude Azimuth Distance (km) Brightness Sun altitude
Rises 19:42:23 0° 190° (S) 2,879 6.8 -14.3°
Reaches altitude 10° 19:44:36 10° 192° (SSW) 1,977 5.9 -13.8°
Maximum altitude 19:48:58 73° 277° (W) 652 3.5 -12.9°
Drops below altitude 10° 19:53:23 10° 2° (N) 1,995 6.3 -12.0°
Sets 19:55:38 0° 5° (N) 2,909 7.2 -11.6°
